Regional Weather Roundup
Issued by NWS

Home | Current Version | Previous Version | Graphics & Text | Print | Product List | Glossary On
Versions: 1 2 3 4 5 6 7 8 9 10 11 12 13 14 15 16 17 18 19 20 21 22 23 24 25 26 27 28 29 30 31 32 33 34 35 36 37 38 39 40 41 42 43 44 45 46 47 48 49 50
885
ASUS43 KOAX 241002
RWRNE

WEATHER ROUNDUP FOR NEBRASKA
NATIONAL WEATHER SERVICE OMAHA NE
500 AM CDT MON JUL 24 2017

NOTES: SATELLITE DATA IS BEING USED TO AUGMENT CLOUD COVER ABOVE
       12000 FEET.
       "FAIR" INDICATES FEW OR NO CLOUDS BELOW 12,000 FEET WITH NO
       SIGNIFICANT WEATHER AND/OR OBSTRUCTIONS TO VISIBILITY.


NEZ001>004-019>022-054>056-241100-
NEBRASKA PANHANDLE

CITY           SKY/WX    TMP DP  RH WIND       PRES   REMARKS
SCOTTSBLUFF    PTCLDY    77  54  44 S12       29.97F
ALLIANCE       CLEAR     67  54  63 S10       29.99F
CHADRON        CLEAR     80  51  36 S17G28    29.89F
GORDON         FAIR      66  56  70 SE3       29.97S
KIMBALL        CLEAR     70  58  65 S17       30.07F
SIDNEY         CLEAR     66  55  67 SW10      30.06S
$$

NEZ057>060-069>072-079>082-241100-
SOUTHWEST NEBRASKA

CITY           SKY/WX    TMP DP  RH WIND       PRES   REMARKS
NORTH PLATTE   PTCLDY    68  65  90 SE9       30.01F
IMPERIAL       CLEAR     66  54  65 SW9       30.02F
LEXINGTON      PTCLDY    68  63  84 SE6       30.02F
MCCOOK         CLEAR     66  65  96 E3        30.01S FOG
OGALLALA       CLEAR     65  56  72 CALM      30.03R
$$

NEZ005>010-023>029-035>040-094-241100-
NORTH CENTRAL NEBRASKA

CITY           SKY/WX    TMP DP  RH WIND       PRES   REMARKS
VALENTINE      PTCLDY    68  57  68 SE7       30.00F
AINSWORTH      CLEAR     65  59  81 S8        30.02S
BROKEN BOW     CLEAR     64  61  90 SE3       30.03R
O`NEILL        CLEAR     64  59  86 SE6       30.02F
ORD            CLEAR     62  58  86 E5        30.01S
THEDFORD       CLEAR     66  63  90 SE3       30.03S
$$

NEZ041-046>049-061>064-073>077-083>087-241100-
SOUTH CENTRAL NEBRASKA

CITY           SKY/WX    TMP DP  RH WIND       PRES   REMARKS
GRAND ISLAND   CLEAR     65  62  90 SE5       30.02S
AURORA         CLEAR     63  61  96 E6        30.02R
HASTINGS       CLEAR     69  60  73 SE8       30.03S
HEBRON         CLEAR     66  63  90 CALM      30.01R
HOLDREGE       CLEAR     65  61  86 SE5       30.02S
KEARNEY        CLEAR     65  62  90 SE6       30.02S
YORK           CLEAR     64  63  94 E6        30.02S
$$

NEZ011>018-030>034-042>045-241100-
NORTHEAST NEBRASKA

CITY           SKY/WX    TMP DP  RH WIND       PRES   REMARKS
NORFOLK        CLEAR     60  57  89 SE3       30.03R
ALBION         CLOUDY    61  59  94 CALM      30.03R
BLAIR          CLEAR     64  60  88 NE3       30.02R
COLUMBUS       CLEAR     61  59  93 E3        30.03R
FREMONT        CLEAR     63  61  91 CALM      30.02S
TEKAMAH        CLEAR     59  56  89 CALM      30.02R
WAYNE          CLEAR     55  54  98 CALM      30.03S
$$

NEZ050>053-065>068-078-088>093-241100-
SOUTHEAST NEBRASKA

CITY           SKY/WX    TMP DP  RH WIND       PRES   REMARKS
LINCOLN        CLEAR     66  61  84 E6        30.02R
OMAHA EPPLEY   CLEAR     65  60  84 NE3       30.02R
BEATRICE       CLEAR     65  62  89 E6        30.00S
FALLS CITY     CLEAR     64  61  90 E3        29.99R
NEBRASKA CITY  CLEAR     65  65 100 CALM      30.01S
PLATTSMOUTH    CLEAR     64  60  88 NE3       30.02R
$$

NEZ044-045-051>053-067-241100-
OMAHA AREA

CITY           SKY/WX    TMP DP  RH WIND       PRES   REMARKS
OMAHA EPPLEY   CLEAR     65  60  84 NE3       30.02R
BLAIR          CLEAR     64  60  88 NE3       30.02R
FREMONT        CLEAR     63  61  91 CALM      30.02S
MILLARD        CLEAR     65  63  91 CALM      30.01S
OFFUTT AFB     CLEAR     61  59  93 NE3       30.01R
PLATTSMOUTH    CLEAR     64  60  88 NE3       30.02R
WAHOO          FAIR      59  58  96 N3        30.02S
$$




USA.gov is the U.S. government's official web portal to all federal, state and local government web resources and services.